When you browse on this site, cookies collect data to enhance your experience and personalize the content and advertising you see.
Visit our Privacy Policy to learn more. By continuing to use the site, you agree to this use of cookies and data.
  • In Sweden
  • List of Countries
  • For 7 days
  • Water Temperature
  • Weather Map
  • Weather Widgets
  • user-avatar
    Login

    Hourly Weather San Juan

    Today, 20 September, Friday

    Time Temperature Precipitation Wind Pressure Humidity
    00:00 +9°C° 0 mm 3 mps 708 mmHg 15%
    01:00 +9°C° 0 mm 3 mps 708 mmHg 15%
    02:00 +8°C° 0 mm 3 mps 708 mmHg 16%
    03:00 +7°C° 0 mm 2 mps 708 mmHg 17%
    04:00 +6°C° 0 mm 2 mps 708 mmHg 18%
    05:00 +9°C° 0 mm 1 mps 708 mmHg 16%
    06:00 +11°C° 0 mm 1 mps 709 mmHg 14%
    07:00 +12°C° 0 mm 1 mps 709 mmHg 13%
    08:00 +14°C° 0 mm 1 mps 709 mmHg 12%
    09:00 +15°C° 0 mm 1 mps 709 mmHg 10%
    10:00 +18°C° 0 mm 1 mps 709 mmHg 9%
    11:00 +18°C° 0 mm 2 mps 709 mmHg 9%
    12:00 +19°C° 0 mm 2 mps 708 mmHg 9%
    13:00 +20°C° 0 mm 2 mps 708 mmHg 8%
    14:00 +21°C° 0 mm 2 mps 708 mmHg 8%
    15:00 +21°C° 0 mm 2 mps 707 mmHg 8%
    16:00 +21°C° 0 mm 2 mps 707 mmHg 8%
    17:00 +19°C° 0 mm 2 mps 707 mmHg 11%
    18:00 +16°C° 0 mm 1 mps 708 mmHg 15%
    19:00 +13°C° 0 mm 1 mps 708 mmHg 18%
    20:00 +13°C° 0 mm 1 mps 708 mmHg 18%
    21:00 +13°C° 0 mm 2 mps 708 mmHg 19%
    22:00 +13°C° 0 mm 2 mps 708 mmHg 19%
    23:00 +12°C° 0 mm 2 mps 708 mmHg 19%

    Tomorrow, 21 September, Saturday

    Time Temperature Precipitation Wind Pressure Humidity
    00:00 +12°C° 0 mm 2 mps 708 mmHg 20%
    01:00 +11°C° 0 mm 3 mps 708 mmHg 20%
    02:00 +10°C° 0 mm 2 mps 707 mmHg 21%
    03:00 +9°C° 0 mm 2 mps 707 mmHg 22%
    04:00 +9°C° 0 mm 2 mps 707 mmHg 24%
    05:00 +12°C° 0 mm 1 mps 708 mmHg 21%
    06:00 +14°C° 0 mm 1 mps 708 mmHg 18%
    07:00 +16°C° 0 mm 1 mps 709 mmHg 15%
    08:00 +19°C° 0 mm 1 mps 709 mmHg 13%
    09:00 +20°C° 0 mm 2 mps 709 mmHg 12%
    10:00 +23°C° 0 mm 2 mps 709 mmHg 10%
    11:00 +24°C° 0 mm 3 mps 709 mmHg 9%
    12:00 +25°C° 0 mm 3 mps 708 mmHg 9%
    13:00 +26°C° 0 mm 4 mps 708 mmHg 8%
    14:00 +26°C° 0 mm 4 mps 708 mmHg 8%
    15:00 +26°C° 0 mm 4 mps 708 mmHg 8%
    16:00 +26°C° 0 mm 4 mps 708 mmHg 8%
    17:00 +23°C° 0 mm 4 mps 708 mmHg 10%
    18:00 +20°C° 0 mm 3 mps 708 mmHg 11%
    19:00 +18°C° 0 mm 3 mps 708 mmHg 13%
    20:00 +17°C° 0 mm 3 mps 708 mmHg 14%
    21:00 +16°C° 0 mm 3 mps 709 mmHg 16%
    22:00 +16°C° 0 mm 3 mps 709 mmHg 17%
    23:00 +14°C° 0 mm 2 mps 709 mmHg 20%

    Day after tomorrow, 22 September, Sunday

    Time Temperature Precipitation Wind Pressure Humidity
    00:00 +13°C° 0 mm 1 mps 708 mmHg 24%
    01:00 +12°C° 0 mm 1 mps 708 mmHg 27%
    02:00 +11°C° 0 mm 1 mps 708 mmHg 29%
    03:00 +10°C° 0 mm 0 mps 707 mmHg 31%
    04:00 +9°C° 0 mm 0 mps 707 mmHg 33%
    05:00 +12°C° 0 mm 1 mps 708 mmHg 28%
    06:00 +14°C° 0 mm 1 mps 708 mmHg 23%
    07:00 +18°C° 0 mm 1 mps 709 mmHg 18%
    08:00 +19°C° 0 mm 1 mps 709 mmHg 16%
    09:00 +21°C° 0 mm 1 mps 709 mmHg 15%
    10:00 +23°C° 0 mm 2 mps 709 mmHg 14%
    11:00 +24°C° 0 mm 2 mps 708 mmHg 13%
    12:00 +26°C° 0 mm 2 mps 707 mmHg 12%
    13:00 +27°C° 0 mm 2 mps 707 mmHg 10%
    14:00 +28°C° 0 mm 3 mps 706 mmHg 11%
    15:00 +28°C° 0 mm 4 mps 706 mmHg 12%
    16:00 +28°C° 0 mm 5 mps 705 mmHg 12%
    17:00 +25°C° 0 mm 4 mps 706 mmHg 17%
    18:00 +22°C° 0 mm 4 mps 706 mmHg 21%
    19:00 +20°C° 0 mm 4 mps 706 mmHg 26%
    20:00 +19°C° 0 mm 4 mps 706 mmHg 29%
    21:00 +18°C° 0 mm 4 mps 706 mmHg 32%
    22:00 +18°C° 0 mm 4 mps 706 mmHg 34%
    23:00 +17°C° 0 mm 3 mps 706 mmHg 37%

    23 September, Monday

    Time Temperature Precipitation Wind Pressure Humidity
    00:00 +15°C° 0 mm 2 mps 706 mmHg 40%
    01:00 +14°C° 0 mm 1 mps 706 mmHg 43%
    02:00 +14°C° 0 mm 1 mps 706 mmHg 44%
    03:00 +13°C° 0 mm 1 mps 706 mmHg 44%
    04:00 +13°C° 0 mm 1 mps 707 mmHg 45%
    05:00 +15°C° 0 mm 2 mps 708 mmHg 39%
    06:00 +17°C° 0 mm 2 mps 709 mmHg 32%
    07:00 +19°C° 0 mm 3 mps 710 mmHg 26%
    08:00 +21°C° 0 mm 5 mps 711 mmHg 23%
    09:00 +23°C° 0 mm 7 mps 711 mmHg 21%
    10:00 +26°C° 0 mm 9 mps 712 mmHg 19%
    11:00 +27°C° 0 mm 8 mps 712 mmHg 17%
    12:00 +28°C° 0 mm 8 mps 712 mmHg 16%
    13:00 +29°C° 0 mm 8 mps 711 mmHg 15%
    14:00 +28°C° 0 mm 8 mps 711 mmHg 15%
    15:00 +28°C° 0 mm 7 mps 711 mmHg 15%
    16:00 +28°C° 0 mm 6 mps 711 mmHg 15%
    17:00 +25°C° 0 mm 5 mps 712 mmHg 18%
    18:00 +22°C° 0 mm 4 mps 712 mmHg 22%
    19:00 +19°C° 0 mm 2 mps 712 mmHg 25%
    20:00 +19°C° 0 mm 2 mps 713 mmHg 27%
    21:00 +18°C° 0 mm 2 mps 713 mmHg 29%
    22:00 +17°C° 0 mm 2 mps 713 mmHg 31%
    23:00 +17°C° 0 mm 2 mps 713 mmHg 32%

    24 September, Tuesday

    Time Temperature Precipitation Wind Pressure Humidity
    00:00 +17°C° 0 mm 2 mps 713 mmHg 32%
    01:00 +16°C° 0 mm 2 mps 713 mmHg 32%
    02:00 +15°C° 0 mm 2 mps 712 mmHg 35%
    03:00 +14°C° 0 mm 2 mps 712 mmHg 38%
    04:00 +13°C° 0 mm 1 mps 712 mmHg 41%
    05:00 +15°C° 0 mm 1 mps 712 mmHg 36%
    06:00 +18°C° 0 mm 1 mps 712 mmHg 31%
    07:00 +20°C° 0 mm 1 mps 713 mmHg 26%
    08:00 +22°C° 0 mm 1 mps 713 mmHg 24%
    09:00 +24°C° 0 mm 1 mps 712 mmHg 21%
    10:00 +26°C° 0 mm 2 mps 712 mmHg 19%
    11:00 +27°C° 0 mm 2 mps 712 mmHg 17%
    12:00 +28°C° 0 mm 3 mps 711 mmHg 15%
    13:00 +30°C° 0 mm 3 mps 710 mmHg 14%
    14:00 +30°C° 0 mm 3 mps 710 mmHg 13%
    15:00 +30°C° 0 mm 3 mps 710 mmHg 13%
    16:00 +30°C° 0 mm 3 mps 709 mmHg 12%
    17:00 +28°C° 0 mm 3 mps 709 mmHg 16%
    18:00 +25°C° 0 mm 3 mps 709 mmHg 20%
    19:00 +21°C° 0 mm 3 mps 710 mmHg 23%
    20:00 +21°C° 0 mm 3 mps 710 mmHg 24%
    21:00 +21°C° 0 mm 3 mps 710 mmHg 24%
    22:00 +21°C° 0 mm 4 mps 710 mmHg 24%
    23:00 +20°C° 0 mm 4 mps 710 mmHg 25%

    25 September, Wednesday

    Time Temperature Precipitation Wind Pressure Humidity
    00:00 +19°C° 0 mm 3 mps 710 mmHg 27%
    01:00 +18°C° 0 mm 3 mps 710 mmHg 28%
    02:00 +18°C° 0 mm 3 mps 710 mmHg 30%
    03:00 +17°C° 0 mm 2 mps 709 mmHg 32%
    04:00 +16°C° 0 mm 2 mps 709 mmHg 33%
    05:00 +18°C° 0 mm 2 mps 710 mmHg 30%
    06:00 +20°C° 0 mm 3 mps 710 mmHg 27%
    07:00 +22°C° 0 mm 3 mps 710 mmHg 23%
    08:00 +25°C° 0 mm 4 mps 710 mmHg 21%
    09:00 +27°C° 0 mm 4 mps 710 mmHg 19%
    10:00 +29°C° 0 mm 5 mps 710 mmHg 16%
    11:00 +30°C° 0 mm 5 mps 709 mmHg 15%
    12:00 +32°C° 0 mm 5 mps 709 mmHg 13%
    13:00 +34°C° 0 mm 5 mps 708 mmHg 12%
    14:00 +33°C° 0 mm 5 mps 707 mmHg 12%
    15:00 +33°C° 0 mm 5 mps 707 mmHg 12%
    16:00 +33°C° 0 mm 6 mps 706 mmHg 13%
    17:00 +30°C° 0 mm 5 mps 706 mmHg 16%
    18:00 +27°C° 0 mm 5 mps 706 mmHg 19%
    19:00 +25°C° 0 mm 5 mps 706 mmHg 23%
    20:00 +23°C° 0 mm 5 mps 706 mmHg 24%
    21:00 +22°C° 0 mm 5 mps 706 mmHg 25%
    22:00 +22°C° 0 mm 5 mps 706 mmHg 26%
    23:00 +21°C° 0 mm 4 mps 706 mmHg 27%
    Show more